Den Helder, Netherlands

12:16 PM CET on December 05, 2016 (GMT +0100)
De Kooy Navy

Weather History for EHKD - October, 2012

Change the Weather History Date:

Sunday, October 21, 2012

  Actual Average Record
Temperature  
Mean Temperature 52 °F -  
Max Temperature 54 °F 55 °F 64 °F (2000)
Min Temperature 50 °F 46 °F 37 °F (1999)
Degree Days  
Heating Degree Days 13    
Growing Degree Days 2 (Base 50)    
Moisture  
Dew Point 52 °F    
Average Humidity 95    
Maximum Humidity 100    
Minimum Humidity 82    
Precipitation  
Precipitation 0.00 in - - ()
Sea Level Pressure  
Sea Level Pressure 30.07 in    
Wind  
Wind Speed 10 mph ()    
Max Wind Speed 25 mph    
Max Gust Speed -    
Visibility 5.5 miles    
Events Fog , Rain    
Averages and records for this station are not official NWS values.
T = Trace of Precipitation, MM = Missing Value Source: Averaged Metar Reports

Daily Weather History Graph

Daily Weather History Graph

Search for Another Location

Airport or City:

Trip Planner

Search our weather history database for the weather conditions in past years. The results will help you decide how hot, cold, wet, or windy it might be!

Date:

Astronomy

Oct. 21, 2012 Rise Set
Actual Time 8:18 AM CEST 6:31 PM CEST
Civil Twilight 7:43 AM CEST 7:06 PM CEST
Nautical Twilight 7:03 AM CEST 7:46 PM CEST
Astronomical Twilight 6:23 AM CEST 8:26 PM CEST
Moon 2:47 PM CEST (10/21) 11:51 PM CEST (10/21)
Length of Visible Light 11h 23m
Length of Day
10h 13m
Waxing Crescent, 42% of the Moon is Illuminated
Oct 21
Waxing Crescent
Oct 22
First Quarter
Oct 29
Full
Nov 7
Last Quarter
Nov 13
New

Hourly Weather History & Observations

Time (CEST) Temp. Dew Point Humidity Pressure Visibility Wind Dir Wind Speed Gust Speed Precip Events Conditions
12:25 AM 55.4 °F 53.6 °F 94% 30.06 in 6.2 mi North 5.8 mph - N/A   Mostly Cloudy
12:55 AM 55.4 °F 53.6 °F 94% 30.06 in 4.3 mi NE 4.6 mph - N/A   Overcast
12:57 AM 55.4 °F 53.6 °F 94% 30.06 in 5.0 mi NE 4.6 mph - N/A   Overcast
1:01 AM 55.4 °F 53.6 °F 94% 30.06 in 4.3 mi NE 4.6 mph - N/A   Overcast
1:25 AM 53.6 °F 53.6 °F 100% 30.06 in 4.3 mi NE 5.8 mph - N/A   Overcast
1:27 AM 53.6 °F 53.6 °F 100% 30.06 in 5.0 mi NE 4.6 mph - N/A   Overcast
1:41 AM 53.6 °F 53.6 °F 100% 30.06 in 5.6 mi NE 4.6 mph - N/A   Overcast
1:45 AM 53.6 °F 53.6 °F 100% 30.06 in 6.2 mi NE 5.8 mph - N/A   Overcast
1:55 AM 55.4 °F 53.6 °F 94% 30.06 in 6.2 mi NE 4.6 mph - N/A   Overcast
2:00 AM 54 °F 53 °F 96% 30.09 in 6 mi North 2.2 mph - -   Mist
2:11 AM 53.6 °F 53.6 °F 100% 30.09 in 5.0 mi North 3.5 mph - N/A   Overcast
2:19 AM 53.6 °F 53.6 °F 100% 30.09 in 5.0 mi North 3.5 mph - N/A Rain Rain
2:25 AM 53.6 °F 53.6 °F 100% 30.09 in 4.3 mi North 4.6 mph - N/A   Heavy Drizzle
2:27 AM 53.6 °F 53.6 °F 100% 30.09 in 5.0 mi North 4.6 mph - N/A   Drizzle
2:55 AM 53.6 °F 53.6 °F 100% 30.06 in 3.7 mi NNE 5.8 mph - N/A   Drizzle
3:02 AM 53.6 °F 53.6 °F 100% 30.06 in 3.1 mi North 6.9 mph - N/A   Drizzle
3:13 AM 53.6 °F 53.6 °F 100% 30.06 in - North 6.9 mph - N/A   Heavy Drizzle
3:17 AM 53.6 °F 53.6 °F 100% 30.06 in - North 6.9 mph - N/A   Heavy Drizzle
3:25 AM 53.6 °F 53.6 °F 100% 30.06 in - North 6.9 mph - N/A   Heavy Drizzle
3:37 AM 53.6 °F 53.6 °F 100% 30.06 in 3.1 mi North 8.1 mph - N/A   Heavy Drizzle
3:41 AM 53.6 °F 53.6 °F 100% 30.06 in - North 9.2 mph - N/A   Heavy Drizzle
3:47 AM 53.6 °F 53.6 °F 100% 30.06 in - North 8.1 mph - N/A   Heavy Drizzle
3:55 AM 53.6 °F 53.6 °F 100% 30.06 in - North 8.1 mph - N/A Rain Rain
4:04 AM 53.6 °F 51.8 °F 94% 30.06 in 3.7 mi North 8.1 mph - N/A Rain Rain
4:11 AM 53.6 °F 51.8 °F 94% 30.06 in 3.7 mi North 8.1 mph - N/A Rain Rain
4:16 AM 53.6 °F 51.8 °F 94% 30.06 in 2.8 mi North 8.1 mph - N/A Rain Rain
4:25 AM 51.8 °F 51.8 °F 100% 30.06 in 3.1 mi North 8.1 mph - N/A Rain Rain
4:47 AM 51.8 °F 50.0 °F 94% 30.09 in 6.2 mi North 9.2 mph - N/A   Heavy Drizzle
4:55 AM 51.8 °F 50.0 °F 94% 30.09 in 6.2 mi North 9.2 mph - N/A   Drizzle
5:00 AM 51 °F 50 °F 95% 30.10 in 8 mi NNW 8.9 mph - - Rain Heavy Rain
5:25 AM 51.8 °F 50.0 °F 94% 30.09 in 6.2 mi North 10.4 mph - N/A Rain Light Rain
5:41 AM 51.8 °F 50.0 °F 94% 30.09 in 6.2 mi NNW 12.7 mph - N/A Rain Light Rain
5:45 AM 51.8 °F 50.0 °F 94% 30.09 in 5.6 mi NNW 11.5 mph - N/A Rain Light Rain
5:49 AM 51.8 °F 50.0 °F 94% 30.09 in 5.6 mi North 12.7 mph - N/A Rain Light Rain
5:55 AM 50.0 °F 50.0 °F 100% 30.09 in 5.6 mi North 12.7 mph - N/A Rain Light Rain
5:57 AM 50.0 °F 50.0 °F 100% 30.09 in 3.7 mi North 12.7 mph - N/A Rain Light Rain
6:01 AM 50.0 °F 50.0 °F 100% 30.09 in 5.6 mi North 11.5 mph - N/A Rain Light Rain
6:14 AM 50.0 °F 50.0 °F 100% 30.09 in 6.2 mi North 12.7 mph - N/A   Drizzle
6:25 AM 51.8 °F 50.0 °F 94% 30.09 in 6.2 mi North 11.5 mph - N/A   Light Drizzle
6:27 AM 51.8 °F 50.0 °F 94% 30.09 in 6.2 mi North 10.4 mph - N/A Rain Light Rain
6:47 AM 51.8 °F 50.0 °F 94% 30.09 in 5.6 mi North 11.5 mph - N/A Rain Light Rain Showers
6:55 AM 51.8 °F 50.0 °F 94% 30.09 in 5.6 mi North 12.7 mph - N/A Rain Light Rain
7:06 AM 51.8 °F 50.0 °F 94% 30.09 in 6.2 mi North 11.5 mph - N/A Rain Drizzle
7:10 AM 51.8 °F 50.0 °F 94% 30.09 in 6.2 mi NNE 12.7 mph - N/A   Light Drizzle
7:25 AM 51.8 °F 50.0 °F 94% 30.09 in 6.2 mi NNE 13.8 mph - N/A   Mostly Cloudy
7:55 AM 51.8 °F 50.0 °F 94% 30.09 in 6.2 mi North 13.8 mph - N/A   Overcast
7:59 AM 51.8 °F 50.0 °F 94% 30.09 in 6.2 mi North 12.7 mph - N/A   Mostly Cloudy
8:00 AM 51 °F 50 °F 94% 30.10 in 25 mi North 11.2 mph - - Rain Rain
8:04 AM 51.8 °F 50.0 °F 94% 30.09 in 6.2 mi North 11.5 mph - N/A   Mostly Cloudy
8:17 AM 51.8 °F 50.0 °F 94% 30.09 in 6.2 mi NNE 15.0 mph - N/A   Overcast
8:25 AM 51.8 °F 50.0 °F 94% 30.09 in 6.2 mi NNE 15.0 mph - N/A   Overcast
8:27 AM 51.8 °F 50.0 °F 94% 30.09 in 6.2 mi NNE 13.8 mph - N/A   Overcast
8:33 AM 51.8 °F 50.0 °F 94% 30.09 in 6.2 mi NE 13.8 mph - N/A   Overcast
8:55 AM 51.8 °F 50.0 °F 94% 30.06 in 6.2 mi NE 20.7 mph - N/A   Overcast
9:00 AM 51.8 °F 50.0 °F 94% 30.06 in 6.2 mi ENE 20.7 mph - N/A   Overcast
9:25 AM 51.8 °F 50.0 °F 94% 30.06 in 6.2 mi ENE 19.6 mph - N/A   Overcast
9:41 AM 53.6 °F 50.0 °F 88% 30.06 in 6.2 mi ENE 19.6 mph - N/A   Overcast
9:55 AM 53.6 °F 50.0 °F 88% 30.06 in 6.2 mi ENE 20.7 mph - N/A   Overcast
10:25 AM 53.6 °F 50.0 °F 88% 30.06 in 6.2 mi ENE 20.7 mph - N/A   Overcast
10:55 AM 53.6 °F 50.0 °F 88% 30.06 in 6.2 mi East 24.2 mph - N/A   Overcast
10:57 AM 53.6 °F 50.0 °F 88% 30.06 in 6.2 mi East 24.2 mph - N/A   Overcast
11:00 AM 54 °F 50 °F 82% 30.08 in 25 mi East 24.6 mph - -   Overcast
11:25 AM 53.6 °F 50.0 °F 88% 30.06 in 6.2 mi East 23.0 mph - N/A   Overcast
11:36 AM 55.4 °F 50.0 °F 82% 30.06 in 6.2 mi East 23.0 mph - N/A   Overcast
11:44 AM 55.4 °F 50.0 °F 82% 30.06 in 6.2 mi East 23.0 mph - N/A   Overcast
11:55 AM 55.4 °F 50.0 °F 82% 30.06 in 6.2 mi East 21.9 mph - N/A   Overcast
12:01 PM 55.4 °F 50.0 °F 82% 30.06 in 6.2 mi East 21.9 mph - N/A   Overcast
12:05 PM 55.4 °F 50.0 °F 82% 30.06 in 6.2 mi East 20.7 mph - N/A   Overcast
12:25 PM 53.6 °F 50.0 °F 88% 30.09 in 6.2 mi East 21.9 mph - N/A   Overcast
12:55 PM 53.6 °F 50.0 °F 88% 30.09 in 6.2 mi ENE 17.3 mph - N/A   Overcast
1:25 PM 53.6 °F 51.8 °F 94% 30.09 in 6.2 mi ENE 15.0 mph - N/A   Overcast
1:34 PM 53.6 °F 51.8 °F 94% 30.09 in 6.2 mi NE 12.7 mph - N/A   Overcast
1:38 PM 53.6 °F 51.8 °F 94% 30.09 in 6.2 mi NE 11.5 mph - N/A   Overcast
1:45 PM 53.6 °F 51.8 °F 94% 30.09 in 6.2 mi NE 12.7 mph - N/A   Mostly Cloudy
1:55 PM 53.6 °F 51.8 °F 94% 30.09 in 6.2 mi NE 11.5 mph - N/A   Overcast
2:00 PM 55 °F 52 °F 86% 30.10 in 17 mi NE 13.4 mph - -   Partly Cloudy
2:25 PM 55.4 °F 51.8 °F 88% 30.09 in 6.2 mi NE 12.7 mph - N/A   Overcast
2:55 PM 53.6 °F 51.8 °F 94% 30.06 in 6.2 mi NE 13.8 mph - N/A   Overcast
3:01 PM 55.4 °F 53.6 °F 94% 30.06 in 6.2 mi NE 12.7 mph - N/A   Overcast
3:25 PM 55.4 °F 53.6 °F 94% 30.06 in 6.2 mi NE 12.7 mph - N/A   Overcast
3:47 PM 53.6 °F 51.8 °F 94% 30.06 in 6.2 mi NE 15.0 mph - N/A   Light Drizzle
3:55 PM 53.6 °F 51.8 °F 94% 30.06 in 6.2 mi NE 17.3 mph - N/A   Drizzle
3:57 PM 53.6 °F 51.8 °F 94% 30.06 in 6.2 mi NE 17.3 mph - N/A Rain Light Rain
4:25 PM 53.6 °F 51.8 °F 94% 30.06 in 6.2 mi NE 20.7 mph - N/A   Overcast
4:55 PM 53.6 °F 51.8 °F 94% 30.06 in 6.2 mi NE 17.3 mph - N/A   Overcast
5:00 PM 54 °F 52 °F 92% 30.07 in 13 mi NE 17.9 mph - - Rain Rain
5:25 PM 53.6 °F 51.8 °F 94% 30.06 in 6.2 mi NE 16.1 mph - N/A   Overcast
5:55 PM 53.6 °F 53.6 °F 100% 30.06 in 6.2 mi NE 19.6 mph - N/A   Overcast
6:12 PM 53.6 °F 53.6 °F 100% 30.06 in 6.2 mi NE 20.7 mph - N/A   Overcast
6:25 PM 53.6 °F 53.6 °F 100% 30.06 in 6.2 mi NE 20.7 mph - N/A   Overcast
6:31 PM 53.6 °F 53.6 °F 100% 30.06 in 6.2 mi NE 18.4 mph - N/A   Overcast
6:55 PM 53.6 °F 53.6 °F 100% 30.06 in 6.2 mi NE 17.3 mph - N/A   Overcast
7:03 PM 53.6 °F 53.6 °F 100% 30.06 in 6.2 mi ENE 17.3 mph - N/A   Overcast
7:10 PM 53.6 °F 53.6 °F 100% 30.06 in - ENE 17.3 mph - N/A Fog Fog
7:11 PM 53.6 °F 53.6 °F 100% 30.06 in - ENE 16.1 mph - N/A   Overcast
7:25 PM 53.6 °F 53.6 °F 100% 30.06 in 6.2 mi ENE 17.3 mph - N/A   Overcast
7:48 PM 53.6 °F 53.6 °F 100% 30.06 in 5.6 mi ENE 15.0 mph - N/A   Overcast
7:55 PM 53.6 °F 53.6 °F 100% 30.06 in 5.6 mi ENE 15.0 mph - N/A   Overcast
8:00 PM 54 °F 53 °F 95% 30.08 in 5 mi ENE 15.7 mph - -   Mist
8:00 PM 53.6 °F 53.6 °F 100% 30.06 in 4.3 mi ENE 15.0 mph - N/A   Overcast
8:25 PM 53.6 °F 53.6 °F 100% 30.06 in 4.3 mi ENE 15.0 mph - N/A   Overcast
8:55 PM 53.6 °F 53.6 °F 100% 30.06 in 3.7 mi NE 10.4 mph - N/A   Overcast
9:09 PM 53.6 °F 53.6 °F 100% 30.06 in - NE 11.5 mph - N/A   Overcast
9:25 PM 53.6 °F 53.6 °F 100% 30.06 in - NE 12.7 mph - N/A   Overcast
9:28 PM 53.6 °F 53.6 °F 100% 30.06 in - NE 12.7 mph - N/A   Overcast
9:55 PM 53.6 °F 53.6 °F 100% 30.06 in 1.7 mi ENE 13.8 mph - N/A   Overcast
9:57 PM 53.6 °F 53.6 °F 100% 30.06 in 1.7 mi ENE 13.8 mph - N/A   Overcast
10:16 PM 53.6 °F 53.6 °F 100% 30.06 in 1.3 mi ENE 13.8 mph - N/A   Overcast
10:25 PM 53.6 °F 53.6 °F 100% 30.06 in 1.0 mi ENE 15.0 mph - N/A   Overcast
10:41 PM 53.6 °F 53.6 °F 100% 30.06 in - ENE 13.8 mph - N/A Fog Fog
10:55 PM 53.6 °F 53.6 °F 100% 30.06 in 0.4 mi ENE 13.8 mph - N/A Fog Fog
11:00 PM 54 °F 54 °F 100% 30.09 in 0 mi ENE 13.4 mph - - Fog Fog
11:25 PM 53.6 °F 53.6 °F 100% 30.06 in 0.3 mi ENE 12.7 mph - N/A Fog Fog
11:55 PM 53.6 °F 53.6 °F 100% 30.06 in 0.2 mi ENE 11.5 mph - N/A Fog Fog